Location: Seattle
(47.6064°N, 122.3308°W)
Time: 10:45:23
(UTC-07:00)

Explorer 7 - Pass Details

Date: 10 August 2021
Orbit: 484 x 676 km, 50.3° (Epoch: 22 September)

Event Time Altitude Azimuth Distance (km) Brightness Sun altitude
Exits shadow 03:37:30 63° 219° (SW) 543 6.4 -19.4°
Maximum altitude 03:38:00 77° 157° (SSE) 503 6.4 -19.3°
Drops below altitude 10° 03:41:47 10° 71° (ENE) 1,689 10.1 -18.9°
Sets 03:44:00 0° 70° (ENE) 2,591 11.2 -18.7°
